Location: Los Gatos B&B
(42.6926°N, 77.0646°W)
Time: 08:55:28
(UTC-04:00)

Cosmos 2263 Rocket - Visible Passes

Search period start: 26 May 2017 00:00
Search period end: 05 June 2017 00:00
Orbit: 825 x 847 km, 71.0° (Epoch: 25 May)

Date Brightness Start Highest point End Pass type
(mag) Time Alt. Az. Time Alt. Az. Time Alt. Az.
26 May 4.6 04:15:30 10° SE 04:18:53 17° E 04:22:17 10° ENE visible
27 May 4.6 03:59:09 10° SE 04:02:14 15° E 04:05:18 10° ENE visible
28 May 4.6 03:42:53 10° SE 03:45:35 14° E 03:48:16 10° ENE visible
29 May 4.6 03:26:43 10° ESE 03:28:56 12° E 03:31:10 10° ENE visible
30 May 4.7 03:10:42 10° ESE 03:12:17 11° E 03:13:52 10° E visible
30 May 2.2 04:49:43 10° SSW 04:55:17 87° ESE 05:00:53 10° NNE visible
31 May 2.3 04:33:01 10° SSW 04:38:35 80° ESE 04:44:10 10° NNE visible
01 Jun 2.3 04:16:37 11° SSW 04:21:52 74° ESE 04:27:26 10° NNE visible
02 Jun 2.4 04:00:33 15° S 04:05:10 68° ESE 04:10:42 10° NNE visible
03 Jun 2.5 03:44:27 19° S 03:48:28 62° ESE 03:53:58 10° NNE visible
04 Jun 2.6 03:28:18 22° S 03:31:46 57° ESE 03:37:14 10° NNE visible
